DMSP 5D-2 F13 DEB, 40411

Orbit data source: Space-Track

DMSP 5D-2 F13 DEB, 40411 is space debris in SSO originally from a launch on Fri, 24 Mar 1995 UTC launched from the Air Force Western Test Range (AFWTR). Debris objects in space refer to the collection of defunct objects orbiting the Earth. Examples of debris include non-operational satellites, rocket bodies, and fragments generated from explosions, collisions, or faulty payload assembly.

Loading next visibility...
Identifier
40411, 1995-015Y
Orbit
SSO
Country
Flag of USUS
Related business
Manufacturer
Unknown
Mission
Spacecraft
Bus & Motor
Unknown
Mass
Unknown
Launch date (UTC)
1995-03-24 (31 years ago)
Launch vehicle
Unknown
Launch site
Air Force Western Test Range (AFWTR)
Object type
Payload
Rocket body
Debris
Shape & HBR
Unknown shape, 0.1 m
Radar Cross Section
Small (<0.1 m²)

Expand to show TLE details & history
Last TLE update: 9 hours ago

TLE from 9 hours ago
0 DMSP 5D-2 F13 DEB
1 40411U 95015Y   26118.99912637  .00000799  00000-0  42424-3 0  9998
2 40411  98.8995 136.6079 0026394 153.3074 206.9465 14.16278833576013
Epoch: 2026-04-28T23:58Z
TLE epoch observation values (Epoch: 2026-04-28T23:58:44.518Z)
Latitude
0.00001°
Longitude
-80.04398°
Altitude
857.86 km
Speed
7.415 km/s
True Right ascension
09h 06m 25s
True Declination
0° 00' 00"
Sunlit
Object was in daylight at epoch
Visualization orbit readout
Latitude
Unknown
Longitude
Unknown
Altitude
Unknown
Speed
Unknown
Apparent Right ascension
Unknown
Apparent Declination
Unknown
Sunlit
N/A
Visualization observer readout
Local Sidereal Time
16:43:15
Azimuth
Unknown
Elevation
Unknown
Doppler factor
Unknown
Orbital elements
Apogee altitude
854.176 km
Perigee altitude
816.099 km
Semi-major axis
7,213.275 km
Eccentricity
0.00264
Inclination
98.8995°
RAAN
136.6079°
Arg. of periapsis
153.3074°
True anomaly
206.80984°
Mean anomaly
206.9465°
Eccentric anomaly
206.87813°
Mean motion
3.54278 °/min
Orbital period
101.62 mins
BSTAR
0.00042424

Documentation

Showing up to 5 results
|